Weather History for KLWT - September, 2013

Change the Weather History Date:

Wednesday, September 25, 2013

  Actual Average Record
Temperature  
Mean Temperature 43 °F 51 °F  
Max Temperature 46 °F 65 °F 92 °F (1922)
Min Temperature 40 °F 37 °F 13 °F (1926)
Degree Days  
Heating Degree Days 22 14  
Month to date heating degree days 132 244  
Since 1 July heating degree days 171 402  
Cooling Degree Days 0 0  
Month to date cooling degree days 47 13  
Year to date cooling degree days 277 209  
Moisture  
Dew Point 42 °F    
Average Humidity 95    
Maximum Humidity 100    
Minimum Humidity 89    
Precipitation  
Precipitation 0.22 in 0.04 in 0.62 in (1924)
Month to date precipitation 1.83 1.14  
Year to date precipitation 19.89 14.14  
Snow  
Snow 0.00 in - - ()
Snow Depth 0.00 in    
Sea Level Pressure  
Sea Level Pressure 29.73 in    
Wind  
Wind Speed 8 mph (NW)    
Max Wind Speed 16 mph    
Max Gust Speed 21 mph    
Visibility 9 miles    
Events Rain    
T = Trace of Precipitation, MM = Missing Value Source: NWS Daily Summary

Daily Weather History Graph

Daily Weather History Graph

Search for Another Location

Airport or City:

Trip Planner

Search our weather history database for the weather conditions in past years. The results will help you decide how hot, cold, wet, or windy it might be!

Date:

Astronomy

Sep. 25, 2013 Rise Set
Actual Time 7:09 AM MDT 7:08 PM MDT
Civil Twilight 6:38 AM MDT 7:39 PM MDT
Nautical Twilight 6:03 AM MDT 8:14 PM MDT
Astronomical Twilight 5:26 AM MDT 8:51 PM MDT
Moon 10:57 PM MDT (9/25) 1:37 PM MDT (9/25)
Length of Visible Light 13h 00m
Length of Day
11h 59m
Waning Gibbous, 63% of the Moon is Illuminated
Sep 25
Waning Gibbous
Sep 26
Last Quarter
Oct 4
New
Oct 11
First Quarter
Oct 18
Full

Hourly Weather History & Observations

Time (MDT) Temp. Windchill Dew Point Humidity Pressure Visibility Wind Dir Wind Speed Gust Speed Precip Events Conditions
12:15 AM 44.6 °F 40.2 °F 44.6 °F 100% 29.74 in 10.0 mi WSW 8.1 mph - N/A   Overcast
12:28 AM 44.6 °F 40.2 °F 44.6 °F 100% 29.74 in 10.0 mi West 8.1 mph - N/A   Overcast
12:47 AM 44.6 °F 40.2 °F 44.6 °F 100% 29.73 in 10.0 mi West 8.1 mph - N/A   Overcast
12:54 AM 44.1 °F 40.1 °F 43.0 °F 96% 29.70 in 10.0 mi West 6.9 mph - N/A   Overcast
1:05 AM 42.8 °F 39.3 °F 42.8 °F 100% 29.72 in 10.0 mi West 5.8 mph - N/A   Scattered Clouds
1:54 AM 41.0 °F 37.1 °F 39.9 °F 96% 29.68 in 10.0 mi SW 5.8 mph - N/A   Overcast
2:54 AM 44.1 °F 40.1 °F 41.0 °F 89% 29.68 in 10.0 mi WSW 6.9 mph - N/A   Overcast
3:13 AM 44.6 °F 41.4 °F 41.0 °F 87% 29.74 in 10.0 mi SSW 5.8 mph - N/A   Overcast
3:54 AM 45.0 °F 42.6 °F 42.1 °F 90% 29.71 in 10.0 mi WSW 4.6 mph - N/A   Overcast
4:54 AM 44.1 °F 42.5 °F 42.1 °F 93% 29.72 in 10.0 mi North 3.5 mph - N/A   Overcast
5:06 AM 44.6 °F - 41.0 °F 87% 29.74 in 10.0 mi Calm Calm - N/A   Overcast
5:54 AM 43.0 °F 39.5 °F 41.0 °F 93% 29.72 in 10.0 mi West 5.8 mph - N/A   Scattered Clouds
6:38 AM 44.6 °F 40.7 °F 41.0 °F 87% 29.73 in 10.0 mi West 6.9 mph - N/A   Overcast
6:54 AM 44.1 °F 39.5 °F 41.0 °F 89% 29.71 in 10.0 mi West 8.1 mph - N/A   Overcast
7:41 AM 42.8 °F 38.6 °F 41.0 °F 93% 29.72 in 10.0 mi West 6.9 mph - N/A   Overcast
7:52 AM 44.6 °F 40.2 °F 42.8 °F 93% 29.72 in 10.0 mi West 8.1 mph - N/A   Overcast
7:54 AM 44.1 °F 39.5 °F 42.1 °F 93% 29.71 in 10.0 mi West 8.1 mph - N/A   Overcast
8:54 AM 44.1 °F 39.5 °F 42.1 °F 93% 29.72 in 10.0 mi WNW 8.1 mph - N/A   Overcast
9:47 AM 44.6 °F 40.7 °F 41.0 °F 87% 29.73 in 10.0 mi WNW 6.9 mph - N/A   Overcast
9:54 AM 44.1 °F 40.8 °F 42.1 °F 93% 29.73 in 10.0 mi WNW 5.8 mph - N/A   Overcast
10:54 AM 45.0 °F 40.6 °F 42.1 °F 90% 29.73 in 10.0 mi NW 8.1 mph - N/A   Overcast
11:05 AM 44.6 °F 40.2 °F 41.0 °F 87% 29.73 in 10.0 mi NW 8.1 mph - N/A   Overcast
11:19 AM 44.6 °F 40.7 °F 41.0 °F 87% 29.73 in 10.0 mi NW 6.9 mph - N/A   Overcast
11:26 AM 44.6 °F 40.2 °F 41.0 °F 87% 29.73 in 10.0 mi NW 8.1 mph - N/A   Overcast
11:54 AM 44.1 °F 41.5 °F 42.1 °F 93% 29.73 in 7.0 mi WNW 4.6 mph - 0.00 in Rain Light Rain
12:27 PM 44.6 °F 41.4 °F 42.8 °F 93% 29.72 in 9.0 mi West 5.8 mph - 0.00 in Rain Light Rain
12:54 PM 44.1 °F 40.8 °F 42.1 °F 93% 29.72 in 10.0 mi WNW 5.8 mph - 0.00 in   Overcast
1:11 PM 44.6 °F 40.2 °F 42.8 °F 93% 29.71 in 10.0 mi WNW 8.1 mph - N/A   Overcast
1:33 PM 44.6 °F 40.7 °F 42.8 °F 93% 29.71 in 6.0 mi WNW 6.9 mph - 0.01 in Rain Light Rain
1:54 PM 45.0 °F 40.1 °F 43.0 °F 93% 29.72 in 10.0 mi West 9.2 mph - 0.01 in   Overcast
2:54 PM 45.0 °F 39.3 °F 43.0 °F 93% 29.71 in 10.0 mi WNW 11.5 mph 18.4 mph N/A   Overcast
3:02 PM 44.6 °F 38.4 °F 42.8 °F 93% 29.71 in 10.0 mi WNW 12.7 mph - N/A   Overcast
3:31 PM 44.6 °F 39.2 °F 42.8 °F 93% 29.71 in 10.0 mi WNW 10.4 mph - N/A   Overcast
3:54 PM 45.0 °F 40.1 °F 43.0 °F 93% 29.72 in 10.0 mi WNW 9.2 mph - 0.00 in Rain Light Rain
3:59 PM 44.6 °F 40.7 °F 42.8 °F 93% 29.72 in 9.0 mi NW 6.9 mph - 0.00 in Rain Light Rain
4:54 PM 45.0 °F 42.6 °F 43.0 °F 93% 29.72 in 6.0 mi NW 4.6 mph - 0.00 in Rain Light Rain
5:13 PM 44.6 °F 41.4 °F 44.6 °F 100% 29.72 in 2.5 mi NW 5.8 mph - 0.01 in Rain Light Rain
5:21 PM 44.6 °F 41.4 °F 44.6 °F 100% 29.72 in 2.0 mi NW 5.8 mph - 0.02 in Rain Light Rain
5:30 PM 44.6 °F 43.1 °F 44.6 °F 100% 29.72 in 9.0 mi Variable 3.5 mph - 0.02 in Rain Light Rain
5:39 PM 44.6 °F 39.7 °F 44.6 °F 100% 29.72 in 7.0 mi North 9.2 mph - 0.02 in Rain Light Rain
5:52 PM 44.6 °F 39.7 °F 44.6 °F 100% 29.72 in 10.0 mi North 9.2 mph - 0.02 in   Overcast
5:54 PM 45.0 °F 41.2 °F 44.1 °F 97% 29.73 in 10.0 mi North 6.9 mph - 0.02 in   Overcast
6:09 PM 44.6 °F 40.2 °F 44.6 °F 100% 29.73 in 10.0 mi North 8.1 mph - N/A   Overcast
6:25 PM 44.6 °F 40.2 °F 42.8 °F 93% 29.74 in 10.0 mi North 8.1 mph - 0.00 in Rain Light Rain
6:46 PM 44.6 °F 40.2 °F 42.8 °F 93% 29.74 in 7.0 mi North 8.1 mph - 0.02 in Rain Light Rain
6:54 PM 44.1 °F 40.8 °F 43.0 °F 96% 29.75 in 7.0 mi North 5.8 mph - 0.02 in Rain Light Rain
7:09 PM 44.6 °F 42.2 °F 42.8 °F 93% 29.75 in 3.0 mi North 4.6 mph - 0.04 in Rain Rain
7:34 PM 44.6 °F 42.2 °F 42.8 °F 93% 29.75 in 10.0 mi North 4.6 mph - 0.07 in Rain Light Rain
7:42 PM 44.6 °F 40.2 °F 42.8 °F 93% 29.75 in 10.0 mi North 8.1 mph - 0.07 in Rain Light Rain
7:54 PM 44.1 °F 40.1 °F 43.0 °F 96% 29.75 in 10.0 mi NNE 6.9 mph - 0.07 in Rain Light Rain
8:20 PM 44.6 °F 40.7 °F 42.8 °F 93% 29.75 in 10.0 mi NNE 6.9 mph - 0.00 in Rain Light Rain
8:54 PM 43.0 °F 36.8 °F 42.1 °F 97% 29.76 in 10.0 mi North 11.5 mph - 0.01 in Rain Light Rain
9:45 PM 42.8 °F 35.8 °F 41.0 °F 93% 29.75 in 10.0 mi NNE 13.8 mph - 0.00 in   Overcast
9:54 PM 42.1 °F 34.9 °F 41.0 °F 96% 29.76 in 10.0 mi NNE 13.8 mph - 0.00 in   Overcast
10:37 PM 41.0 °F 33.9 °F 39.2 °F 93% 29.76 in 10.0 mi NNE 12.7 mph - 0.00 in Rain Light Rain
10:54 PM 41.0 °F 34.3 °F 39.9 °F 96% 29.77 in 10.0 mi NNE 11.5 mph - 0.01 in Rain Light Rain
11:02 PM 41.0 °F 34.3 °F 39.2 °F 93% 29.76 in 10.0 mi NNE 11.5 mph - 0.00 in Rain Light Rain
11:30 PM 39.2 °F 32.0 °F 39.2 °F 100% 29.76 in 10.0 mi North 11.5 mph - 0.02 in Rain Light Rain
11:49 PM 39.2 °F 33.0 °F 39.2 °F 100% 29.77 in 7.0 mi North 9.2 mph - 0.04 in Rain Light Rain
11:50 PM 39.9 °F 33.9 °F 39.9 °F 100% 29.79 in 7.0 mi North 9.2 mph - 0.04 in Rain Light Rain